www.pogodaiklimat.ru

Погода и климат >> Архив погоды >> Россия >> Хакасия >> Неожиданный


АРХИВ ПОГОДЫ в Неожиданном

Время (UTC), дата Ветер
(напр.,м/с)
 
Видим.   Явления Облачность Т
(С)
Тd
(С)
f
(%)
Тe
(С)
Тes
(С)
Комфортность P
(гПа)
Po
(гПа)
Тmin
(С)
Tmax
(С)
R
(мм)
R24
(мм)
S
(см)
12 11.06 ЮЗ 2 50 км 10/3 1000 м
[Sc Ci sp]
+19.5 +7.1 45 +21 +22 комфорт 1014.5 954.5 +20.2
15 11.06 штиль 0 50 км 8/0
[Ci fib]
+13.1 +8.8 75 +13 +13 1017.3 956.0
18 11.06 штиль 0 н/о 6/0
[Ci fib]
+8.0 +6.3 89 +7 +7 1018.5 956.0
21 11.06 штиль 0 н/о 3/0
[Ci fib]
+5.1 +3.8 91 +4 +4 1019.2 956.0
00 12.06 штиль 0 500 м туман ?/? +6.6 +5.5 93 +6 +6 1017.9 955.2 +4.5
03 12.06 С 1 50 км {туман} ясно +16.8 +9.2 61 +18 +31 опасность
простуды
1015.1 954.7
06 12.06 ЮЗ 3 50 км {туман} 1/1 1000 м
[Cu hum]
+23.2 +6.0 33 +24 +36 комфорт 1011.0 952.0
09 12.06 З 3 50 км 2 балла +25.5 +7.6 32 +26 +33 жарко 1007.6 949.3
12 12.06 Ю 2 50 км 10/1 1000 м
[Cu hum Ci sp]
+24.8 +6.3 30 +25 +26 комфорт 1006.1 947.7 +26.3
15 12.06 Ю 3 50 км 10/6 1020 м
[Sc Ac trans Ci sp]
+20.5 +7.5 43 +22 +22 комфорт 1008.6 949.3
18 12.06 штиль 0 н/о 10/3 1000 м
[Sc Ac As]
+15.8 +7.8 59 +16 +16 1009.6 949.3
21 12.06 штиль 0 н/о 10/3 1000 м
[Sc Ac trans Ci sp]
+12.5 +9.3 81 +12 +12 1010.3 949.3
00 13.06 штиль 0 50 км 10/4 1000 м
[Sc Ac trans Ci sp]
+12.8 +10.5 86 +12 +13 1009.4 948.5 +11.8
03 13.06 С 1 50 км в посл. час ливневой дождь 10/6 1020 м
[Cb cap Ac trans Ci sp]
+15.8 +12.9 83 +16 +19 1008.5 948.5
06 13.06 ЮЗ 2 50 км {ливн. осадки} 10/3 1000 м
[Sc Ci sp]
+22.3 +10.4 47 +24 +24 комфорт 1006.8 948.0
09 13.06 ЮЗ 3 50 км 4/3 1000 м
[Sc Ci fib]
+24.5 +9.2 38 +25 +31 комфорт 1005.0 946.7
12 13.06 ЮЗ 2 50 км 3/1 1000 м
[Sc Ci sp]
+25.2 +8.6 35 +26 +28 жарко 1001.8 943.7 +25.6 0.3
15 13.06 штиль 0 50 км 8/4 1000 м
[Cb cap Ci sp]
+16.7 +9.4 62 +17 +17 1005.1 945.3
18 13.06 штиль 0 н/о 10/10 1020 м
[Cb cap]
+11.6 +9.7 88 +11 +11 1006.2 945.3
21 13.06 штиль 0 н/о 1/1 1000 м
[Sc]
+7.3 +6.6 95 +6 +6 1007.2 945.3
00 14.06 штиль 0 50 км 3/0
[Ci sp]
+7.0 +6.3 95 +6 +9 1006.4 944.5 +6.3
03 14.06 Ю 5 50 км 3/1 1000 м
[Sc Ac trans]
+20.8 +9.1 47 +22 +27 комфорт 1004.3 945.3
06 14.06 Ю 2 50 км в посл. час ливневой дождь 8/3 1000 м
[Sc Ac trans Cc]
+19.7 +11.7 60 +22 +27 комфорт 1004.5 945.3
09 14.06 СЗ 1 50 км 7 баллов +21.9 +11.9 53 +24 +28 комфорт 1004.0 945.3
12 14.06 ЮЗ 1 50 км гроза без осадков {ливн. осадки} 8/8 1020 м
[Cb cap Ci sp]
+19.8 +15.1 74 +23 +24 комфорт 1003.3 944.0 +23.0 0.5
15 14.06 Ю 1 50 км 6/3 1000 м
[Cb cap Ci sp]
+15.4 +13.2 87 +16 +16 1005.3 945.3
18 14.06 штиль 0 н/о 4/0
[Ci fib]
+11.4 +10.0 91 +11 +11 1006.3 945.3
21 14.06 штиль 0 н/о туман ?/? +11.3 +9.9 91 +11 +11 1006.3 945.3
00 15.06 ЮЗ 1
{13}
50 км {гроза, ливн. осадки} 10/10 1020 м
[Cb cap]
+13.6 +11.7 88 +14 +14 1005.4 945.2 +9.9 9
03 15.06 штиль 0 50 км 10/10 1000 м
[Sc]
+15.3 +12.8 85 +15 +15 1005.4 945.3
06 15.06 ЮЗ 1 50 км 8/3 1000 м
[Sc Cc]
+19.0 +14.5 75 +21 +27 комфорт 1004.5 945.3
09 15.06 СЗ 3 50 км гроза без осадков 8/8 1020 м
[Cb cap]
+22.7 +13.2 55 +26 +29 жарко 1002.4 944.0
12 15.06 штиль 0
{12}
50 км {гроза, ливн. осадки} 10/0
[Ac lent Ci sp]
+17.3 +13.8 80 +17 +18 1004.2 944.8 +24.3 5
15 15.06 СВ 1 50 км {ливн. осадки} 9/3 1000 м
[Sc Ac trans Cc]
+14.6 +13.0 90 +15 +15 1005.5 945.3
18 15.06 Ю 1 н/о туман {ливн. осадки} ?/? +11.7 +10.1 90 +11 +11 1006.2 945.3
21 15.06 штиль 0 н/о туман ?/? +11.9 +11.0 94 +11 +11 1004.8 944.0
00 16.06 штиль 0 50 км в посл. час туман 4/0
[Ac trans]
+12.4 +11.3 93 +12 +14 1003.6 943.1 +11.4 0.6
03 16.06 С 2 50 км 7 баллов +19.7 +13.8 69 +22 +25 комфорт 1003.0 944.0
06 16.06 ЮЗ 2 50 км 8/1 1000 м
[Cu hum Ac lent Ci fib]
+23.6 +8.8 39 +24 +29 комфорт 1002.3 944.0
09 16.06 СЗ 2 50 км 4 балла +25.1 +9.0 36 +26 +32 жарко 1000.7 942.7
12 16.06 СЗ 3
{17}
20 км слаб. ливневой дождь 10/8 1020 м
[Cb cap Ci sp]
+17.8 +11.2 65 +18 +18 1003.3 944.0 +27.0 0.0
15 16.06 ЮВ 1 50 км {ливн. осадки} 10/10 1050 м
[Cb cap]
+14.2 +12.2 88 +15 +15 1006.3 946.0
18 16.06 ЮЗ 1 н/о ливневой дождь 10 баллов +11.5 +8.9 84 +11 +11 1012.0 950.7
21 16.06 Ю 2 н/о 10 баллов +9.1 +5.1 76 +7 +7 1012.6 950.7
00 17.06 ЮЗ 3 50 км {ливн. осадки} 10/10 1020 м
[Cb cap]
+8.2 +4.1 75 +6 +6 1014.1 952.1 +7.9 4
03 17.06 ЮЗ 3 50 км 10 баллов +8.6 +4.2 74 +6 +6 1017.0 954.7
06 17.06 Ю 3 50 км 7 баллов +12.6 +5.3 61 +11 +16 1017.5 956.0
09 17.06 Ю 3 50 км 4 балла +16.0 +4.4 46 +16 +21 1015.4 954.7
12 17.06 Ю 2 50 км 3/3 1000 м
[Sc]
+16.4 +1.9 38 +17 +18 1013.6 953.3 +17.8
15 17.06 ЮЗ 2 50 км ясно +9.0 +5.6 79 +7 +7 1016.9 954.7
18 17.06 штиль 0 н/о ясно +3.8 +2.3 90 +3 +3 1018.1 954.7
21 17.06 штиль 0 н/о ясно +1.2 0.0 92 0 0 1018.8 954.7
00 18.06 штиль 0 50 км ясно +3.4 +1.6 88 +2 +5 1015.3 951.9 +0.5
03 18.06 С 2 50 км 1 балл +16.2 +2.9 41 +16 +26 1011.1 950.7
06 18.06 С 2 50 км 2 балла +21.5 +5.4 35 +22 +35 комфорт 1007.1 948.0

 

Местоположение метеостанции Неожиданный (Хакасия, Россия): широта 53.28 долгота 89.07 высота над уровнем моря 526 м.

В архиве по умолчанию представлена погода в Неожиданном за последнюю неделю. Архивные данные за месяц целиком и за предыдущие месяцы, начиная с января 2011 года, Вы можете получить, выбрав интересующий диапазон дат из раскрывающегося списка и нажав кнопку "Ввод!".


*Определитесь, кто Вы:
робот инопланетянин человек

Внимание! Время в таблицах - всемирное. Для получения местного времени необходимо прибавить поправку, которая равна 7 ч.

Смотрите также архив погоды в соседних городах и на ближайших метеорологических станциях:

Погода в Усть-Кабырзе (Кемеровская область, Россия) (66 км)
Погода в Междуреченске (Кемеровская область, Россия) (71 км)
Погода в Мантуре (Хакасия, Россия) (75 км)
Погода в Таштыпе (Хакасия, Россия) (76 км)
Погода в Аскизе (Хакасия, Россия) (95 км)
Погода в Таштаголе (Кемеровская область, Россия) (98 км)
Погода в Уйбате (Хакасия, Россия) (99 км)
Погода в Коммунаре (Хакасия, Россия) (118 км)
Погода в Кузедеево (Кемеровская область, Россия) (126 км)
Погода в Бее (Хакасия, Россия) (126 км)

Пояснения к столбцам:

Ветер - указаны скорость ветра в м/с - средняя за 10 мин, порывы в срок и между сроками (в фигурных скобках) и направление, откуда дует ветер: С - северный, СВ - северо-восточный, В - восточный, ЮВ - юго-восточный, Ю - южный, ЮЗ - юго-западный, З - западный, СЗ - северо-западный.
Видимость - горизонтальная дальность видимости в метрах или километрах. При видимости от 1 до 10 км при отсутствии осадков обычно наблюдается дымка, при ухудшении видимости до 1 км и менее - туман. В сухую погоду видимость может ухудшаться дымом, пылью или мглою.
Явления - указаны атмосферные явления, наблюдавшиеся в срок или в последний час перед сроком; фигурными скобками обозначены явления, наблюдавшиеся между сроками (за 1-3 часа до срока); квадратными скобками обозначены град или гололедные отложения с указанием их диаметра в мм.
Облачность - указаны через наклонную черту общая и нижняя облачность в баллах и высота нижней границы облаков в метрах; квадратными скобками обозначены формы облаков: Ci - перистые, Cs - перисто-слоистые, Cc - перисто-кучевые, Ac - высококучевые, As - высокослоистые, Sc - слоисто-кучевые, Ns - слоисто-дождевые, Cu - кучевые, Cb - кучево-дождевые. Подробнее классификацию облаков см. в Атласе облаков (PDF).
T - Температура воздуха - температура, измеренная на высоте 2 м над землей.
Td - Температура точки росы - температура, при понижении до которой содержащийся в воздухе водяной пар достигнет насыщения.
f - Относительная влажность воздуха - влажноcть воздуха, измеренная на высоте 2 м над землей.
Te - Эффективная температура - температура, которую ощущает одетый по сезону человек в тени. Характеристика душности погоды. При расчете учитывается влияние влажности воздуха и скорости ветра на теплоощущения человека.
Tes - Эффективная температура на солнце - температура, которую ощущает человек, с поправкой на солнечный нагрев. Характеристика знойности погоды. Зависит от высоты солнца над горизонтом, облачности и скорости ветра. Ночью, в пасмурную погоду, а также при ветре 12 м/с и более поправка равна нулю.
P - Атмосферное давление - приведенное к уровню моря атмосферное давление.
Po - Атмосферное давление - измеренное на уровне метеостанции атмосферное давление.
Tmin - Минимальная температура - минимум температуры воздуха на высоте 2 м над землей.
Tmax - Максимальная температура - максимум температуры воздуха на высоте 2 м над землей.
R - Количество осадков - Количество выпавших осадков за период времени, мм. При наведении курсора мыши на число - период времени, за который выпало указанное количество осадков.
R24 - Количество осадков - Количество выпавших осадков за 24 часа, мм.
S - Снежный покров - Высота снежного покрова, см. При наведении курсора мыши на число - состояние снежного покрова и степень покрытия местности в баллах.